This is the latest recevied weather packets stored in our database for station/object KE9DBJ-13. If no packets are shown the sender has not sent any weather packets the latest 10 day(s).
| Time | Temp. | Humidity | Pressure | Rain* | Wind** | Luminosity | Snow |
|---|---|---|---|---|---|---|---|
| 1777585203 | 16.11° C | 39% | 1015.1 hPa | 0 mm | - | - | - |
| 1777584603 | 15.56° C | 39% | 1015.1 hPa | 0 mm | - | - | - |
| 1777584003 | 16.11° C | 36% | 1015.1 hPa | 0 mm | - | - | - |
| 1777583403 | 16.67° C | 35% | 1015.1 hPa | 0 mm | - | - | - |
| 1777582803 | 16.11° C | 36% | 1015.2 hPa | 0 mm | - | - | - |
| 1777582203 | 16.67° C | 33% | 1015.3 hPa | 0 mm | - | - | - |
| 1777581603 | 17.22° C | 32% | 1015.3 hPa | 0 mm | - | - | - |
| 1777581003 | 18.33° C | 35% | 1015.3 hPa | 0 mm | - | - | - |
| 1777580403 | 17.22° C | 35% | 1015.5 hPa | 0 mm | - | - | - |
| 1777579803 | 17.22° C | 32% | 1015.6 hPa | 0 mm | - | - | - |
| 1777579203 | 17.22° C | 31% | 1015.7 hPa | 0 mm | - | - | - |
| 1777578603 | 17.78° C | 36% | 1015.6 hPa | 0 mm | - | - | - |
| 1777578002 | 16.67° C | 34% | 1015.8 hPa | 0 mm | - | - | - |
| 1777577403 | 17.22° C | 32% | 1015.8 hPa | 0 mm | - | - | - |
| 1777576802 | 17.22° C | 35% | 1015.7 hPa | 0 mm | - | - | - |
| 1777576202 | 17.22° C | 36% | 1015.9 hPa | 0 mm | - | - | - |
| 1777575602 | 17.22° C | 34% | 1016.1 hPa | 0 mm | - | - | - |
| 1777575002 | 17.22° C | 36% | 1016.1 hPa | 0 mm | - | - | - |
| 1777574402 | 16.67° C | 35% | 1016.1 hPa | 0 mm | - | - | - |
| 1777573802 | 16.11° C | 35% | 1016.2 hPa | 0 mm | - | - | - |
| 1777573202 | 16.67° C | 36% | 1016.3 hPa | 0 mm | - | - | - |
| 1777572602 | 16.67° C | 35% | 1016.1 hPa | 0 mm | - | - | - |
| 1777572002 | 16.11° C | 37% | 1016.5 hPa | 0 mm | - | - | - |
| 1777571402 | 16.11° C | 38% | 1016.2 hPa | 0 mm | - | - | - |
| 1777570802 | 16.11° C | 38% | 1016.3 hPa | 0 mm | - | - | - |
* Rain latest hour (hover to see other rain measurements)
** Current wind speed in m/s (hover to see current wind gust speed)